User: anonymous   Login
Location: Unspecified
(0.0000°N, 0.0000°E)
Time: 02:42:55
(UTC+02:00)
Language:

AO-40 - Orbit

View from above orbital plane
View from above orbital plane
View from above satellite
View from above satellite

Ground track
Ground track

The orbit data is extracted from the following two-line orbital elements,

1 26609U 00072B   15102.72760428 -.00000390  00000-0  00000+0 0  9999
2 26609 009.1564 359.4750 7954759 217.6330 043.0893 01.25585172 66332
Epoch (UTC): 12 April 2015 17:27:45
Eccentricity: 0.7954759
inclination: 9.1564°
perigee height: 1044 km
apogee height: 58777 km
right ascension of ascending node: 359.4750°
argument of perigee: 217.6330°
revolutions per day: 1.25585172
mean anomaly at epoch: 43.0893°
orbit number at epoch: 6633

The dashed part of the orbit path shows where the satellite is in the earth's shadow,  

DLR